DAL1419 KJFK-KFLL

Flight info

Callsign DAL1419
Flight time N/A
Altitude 32000
Route WAVEY EMJAY Q167 ZJAAY KALDA Q161 CHIEZ Y291 MAJIK CUUDA3
Aircraft B739/M-SDE2E3FGHIRWXY/LB1

Departure

Time 2026-05-07 23:07
Airport John F. Kennedy International Airport (KJFK)

Arrival

Time N/A
Airport Fort Lauderdale Hollywood International Airport (KFLL)
Time Latitude Longitude Altitude Speed Heading
2026-05-07 22:48 40.64086 -73.79018 21 ft 0 kts 137°
2026-05-07 22:54 40.64090 -73.79023 21 ft 2 kts 137°
2026-05-07 22:54 40.64101 -73.79037 21 ft 2 kts 137°
2026-05-07 22:55 40.64114 -73.79046 21 ft 2 kts 165°
2026-05-07 22:55 40.64129 -73.79048 21 ft 2 kts 186°
2026-05-07 22:55 40.64144 -73.79044 21 ft 2 kts 207°
2026-05-07 22:55 40.64153 -73.79035 21 ft 0 kts 222°
2026-05-07 22:56 40.64158 -73.79029 21 ft 0 kts 225°
2026-05-07 22:58 40.64152 -73.79036 21 ft 1 kts 225°
2026-05-07 22:59 40.64144 -73.79047 21 ft 1 kts 225°
2026-05-07 22:59 40.64125 -73.79072 21 ft 8 kts 224°
2026-05-07 22:59 40.64068 -73.79144 21 ft 13 kts 224°
2026-05-07 22:59 40.64007 -73.79221 21 ft 11 kts 224°
2026-05-07 23:00 40.63958 -73.79284 21 ft 11 kts 224°
2026-05-07 23:00 40.63895 -73.79306 21 ft 9 kts 141°
2026-05-07 23:00 40.63856 -73.79227 21 ft 14 kts 120°
2026-05-07 23:00 40.63781 -73.79060 21 ft 23 kts 121°
2026-05-07 23:01 40.63698 -73.78880 21 ft 22 kts 120°
2026-05-07 23:01 40.63624 -73.78715 21 ft 20 kts 120°
2026-05-07 23:01 40.63555 -73.78561 21 ft 18 kts 121°
2026-05-07 23:01 40.63492 -73.78424 21 ft 16 kts 121°
2026-05-07 23:02 40.63436 -73.78301 21 ft 14 kts 121°
2026-05-07 23:02 40.63387 -73.78192 21 ft 12 kts 120°
2026-05-07 23:02 40.63340 -73.78082 21 ft 16 kts 112°
2026-05-07 23:02 40.63333 -73.77933 21 ft 15 kts 78°
2026-05-07 23:03 40.63310 -73.77809 21 ft 13 kts 120°
2026-05-07 23:03 40.63261 -73.77703 21 ft 15 kts 121°
2026-05-07 23:03 40.63208 -73.77588 21 ft 14 kts 120°
2026-05-07 23:03 40.63159 -73.77477 21 ft 14 kts 121°
2026-05-07 23:04 40.63097 -73.77341 21 ft 19 kts 120°
2026-05-07 23:04 40.63032 -73.77199 21 ft 16 kts 121°
2026-05-07 23:04 40.62982 -73.77095 21 ft 10 kts 141°
2026-05-07 23:04 40.62916 -73.77110 21 ft 9 kts 210°
2026-05-07 23:05 40.62883 -73.77137 21 ft 0 kts 211°
2026-05-07 23:05 40.62880 -73.77138 21 ft 2 kts 211°
2026-05-07 23:05 40.62838 -73.77174 21 ft 10 kts 221°
2026-05-07 23:05 40.62838 -73.77263 21 ft 10 kts 300°
2026-05-07 23:06 40.62873 -73.77336 21 ft 9 kts 302°
2026-05-07 23:06 40.62982 -73.77572 21 ft 64 kts 300°
2026-05-07 23:06 40.63329 -73.78348 22 ft 129 kts 301°
2026-05-07 23:06 40.63884 -73.79575 29 ft 181 kts 300°
2026-05-07 23:07 40.64525 -73.81027 769 ft 180 kts 302°
2026-05-07 23:07 40.65042 -73.82426 1611 ft 178 kts 288°
2026-05-07 23:07 40.64963 -73.84126 1874 ft 202 kts 248°
2026-05-07 23:07 40.64004 -73.85585 2163 ft 225 kts 215°
2026-05-07 23:08 40.62584 -73.86517 2705 ft 231 kts 207°
2026-05-07 23:08 40.61140 -73.87478 3377 ft 229 kts 213°
2026-05-07 23:08 40.59725 -73.88397 4058 ft 231 kts 198°
2026-05-07 23:08 40.58121 -73.88437 4528 ft 244 kts 165°
2026-05-07 23:09 40.56528 -73.87492 4873 ft 259 kts 151°
2026-05-07 23:09 40.54919 -73.86277 5325 ft 271 kts 150°
2026-05-07 23:09 40.53326 -73.84914 5890 ft 281 kts 141°
2026-05-07 23:09 40.52077 -73.82883 6338 ft 294 kts 114°
2026-05-07 23:10 40.51243 -73.80531 7417 ft 281 kts 115°
2026-05-07 23:10 40.50529 -73.78069 7693 ft 301 kts 103°
2026-05-07 23:10 40.50155 -73.75289 8199 ft 311 kts 101°
2026-05-07 23:10 40.49368 -73.72693 8922 ft 310 kts 126°
2026-05-07 23:11 40.47978 -73.70516 9452 ft 314 kts 141°
2026-05-07 23:11 40.46318 -73.68694 10095 ft 315 kts 147°
2026-05-07 23:11 40.44574 -73.66844 10556 ft 329 kts 145°
2026-05-07 23:11 40.42828 -73.64822 10960 ft 345 kts 142°
2026-05-07 23:12 40.41065 -73.62620 11306 ft 359 kts 141°
2026-05-07 23:12 40.39250 -73.60260 11593 ft 375 kts 140°
2026-05-07 23:12 40.37378 -73.57790 11848 ft 391 kts 140°
2026-05-07 23:12 40.35424 -73.55200 12133 ft 405 kts 140°
2026-05-07 23:13 40.33413 -73.52536 12480 ft 416 kts 140°
2026-05-07 23:13 40.31395 -73.49867 13125 ft 418 kts 141°
2026-05-07 23:13 40.29346 -73.47161 13763 ft 420 kts 141°
2026-05-07 23:13 40.27286 -73.44449 14414 ft 421 kts 142°
2026-05-07 23:14 40.25215 -73.41743 15008 ft 423 kts 143°
2026-05-07 23:14 40.23065 -73.39141 15527 ft 423 kts 147°
2026-05-07 23:14 40.20776 -73.36727 16134 ft 422 kts 150°
2026-05-07 23:14 40.18411 -73.34450 16664 ft 422 kts 153°
2026-05-07 23:15 40.15926 -73.32521 17170 ft 412 kts 165°
2026-05-07 23:15 40.13258 -73.31413 17678 ft 401 kts 177°
2026-05-07 23:15 40.10523 -73.30973 18130 ft 396 kts 185°
2026-05-07 23:15 40.07808 -73.31092 18686 ft 386 kts 195°
2026-05-07 23:16 40.05238 -73.31986 19092 ft 379 kts 208°
2026-05-07 23:16 40.02900 -73.33611 19579 ft 374 kts 218°
2026-05-07 23:16 40.00820 -73.35610 20033 ft 374 kts 223°
2026-05-07 23:16 39.98822 -73.37751 20506 ft 375 kts 224°
2026-05-07 23:17 39.96841 -73.39959 21000 ft 375 kts 225°
2026-05-07 23:17 39.94856 -73.42197 21450 ft 377 kts 225°
2026-05-07 23:17 39.92874 -73.44434 21823 ft 380 kts 225°
2026-05-07 23:17 39.90887 -73.46671 22207 ft 382 kts 225°
2026-05-07 23:18 39.88850 -73.48955 22624 ft 384 kts 225°
2026-05-07 23:18 39.86842 -73.51202 23040 ft 385 kts 225°
2026-05-07 23:18 39.84788 -73.53497 23395 ft 388 kts 225°
2026-05-07 23:18 39.82755 -73.55761 23832 ft 388 kts 225°
2026-05-07 23:19 39.80703 -73.58045 24207 ft 390 kts 226°
2026-05-07 23:19 39.78643 -73.60340 24530 ft 393 kts 225°
2026-05-07 23:19 39.76557 -73.62661 24875 ft 395 kts 226°
2026-05-07 23:19 39.74491 -73.64958 25229 ft 396 kts 226°
2026-05-07 23:20 39.72380 -73.67302 25583 ft 399 kts 225°
2026-05-07 23:20 39.70277 -73.69635 25937 ft 401 kts 226°
2026-05-07 23:20 39.68141 -73.72002 26286 ft 402 kts 226°
2026-05-07 23:20 39.66039 -73.74326 26908 ft 397 kts 225°
2026-05-07 23:21 39.63943 -73.76638 27512 ft 392 kts 226°
2026-05-07 23:21 39.61875 -73.78922 27910 ft 392 kts 226°
2026-05-07 23:21 39.59798 -73.81216 28354 ft 390 kts 226°
2026-05-07 23:21 39.57748 -73.83481 28712 ft 389 kts 227°
2026-05-07 23:22 39.55697 -73.85744 29090 ft 389 kts 227°
2026-05-07 23:22 39.53640 -73.88011 29477 ft 387 kts 227°
2026-05-07 23:22 39.51605 -73.90249 29959 ft 383 kts 227°
2026-05-07 23:22 39.49605 -73.92447 30318 ft 382 kts 227°
2026-05-07 23:23 39.47574 -73.94683 30585 ft 383 kts 227°
2026-05-07 23:23 39.45549 -73.96909 30923 ft 381 kts 227°
2026-05-07 23:23 39.43518 -73.99142 31223 ft 381 kts 227°
2026-05-07 23:23 39.41497 -74.01363 31437 ft 382 kts 227°
2026-05-07 23:24 39.39487 -74.03568 31707 ft 381 kts 227°
2026-05-07 23:24 39.37460 -74.05788 31999 ft 380 kts 227°
2026-05-07 23:24 39.35429 -74.08008 32292 ft 379 kts 228°
2026-05-07 23:24 39.33430 -74.10191 32555 ft 378 kts 227°
2026-05-07 23:25 39.31405 -74.12395 32870 ft 376 kts 227°
2026-05-07 23:25 39.29409 -74.14568 33077 ft 376 kts 227°
2026-05-07 23:25 39.27387 -74.16773 33264 ft 377 kts 227°
2026-05-07 23:25 39.25406 -74.18933 33463 ft 377 kts 227°
2026-05-07 23:26 39.23396 -74.21124 33710 ft 377 kts 227°
2026-05-07 23:26 39.21375 -74.23321 33867 ft 377 kts 228°
2026-05-07 23:26 39.19379 -74.25491 33877 ft 377 kts 227°
2026-05-07 23:27 39.13373 -74.31997 33879 ft 376 kts 228°
2026-05-07 23:27 39.09454 -74.36244 33879 ft 376 kts 228°
2026-05-07 23:28 39.05434 -74.40589 33879 ft 375 kts 228°
2026-05-07 23:28 39.01453 -74.44884 33869 ft 375 kts 228°
2026-05-07 23:29 38.97437 -74.49208 33866 ft 376 kts 227°
2026-05-07 23:29 38.93437 -74.53522 33874 ft 376 kts 229°
2026-05-07 23:30 38.89572 -74.57968 33887 ft 371 kts 231°
2026-05-07 23:30 38.85772 -74.62490 33888 ft 372 kts 231°
2026-05-07 23:31 38.82081 -74.66850 33886 ft 373 kts 230°
2026-05-07 23:31 38.78370 -74.71196 33889 ft 371 kts 230°
2026-05-07 23:32 38.74524 -74.75677 33889 ft 372 kts 230°
2026-05-07 23:32 38.70546 -74.79929 33887 ft 374 kts 227°
2026-05-07 23:33 38.66494 -74.84081 33890 ft 374 kts 227°
2026-05-07 23:33 38.62417 -74.88273 33892 ft 374 kts 228°
2026-05-07 23:34 38.58393 -74.92429 33891 ft 372 kts 228°
2026-05-07 23:34 38.54345 -74.96620 33890 ft 372 kts 228°
2026-05-07 23:35 38.50367 -75.00838 33892 ft 369 kts 230°
2026-05-07 23:35 38.46505 -75.05170 33894 ft 370 kts 230°
2026-05-07 23:36 38.42446 -75.09264 33898 ft 374 kts 226°
2026-05-07 23:36 38.38245 -75.13181 33900 ft 373 kts 226°
2026-05-07 23:37 38.34038 -75.17112 33897 ft 376 kts 226°
2026-05-07 23:37 38.29842 -75.21066 33897 ft 374 kts 226°
2026-05-07 23:38 38.25674 -75.25003 33901 ft 372 kts 226°
2026-05-07 23:38 38.21524 -75.28927 33900 ft 373 kts 227°
2026-05-07 23:39 38.17354 -75.32862 33903 ft 374 kts 226°
2026-05-07 23:39 38.13175 -75.36797 33903 ft 372 kts 227°
2026-05-07 23:40 38.09021 -75.40707 33904 ft 372 kts 226°
2026-05-07 23:40 38.04857 -75.44617 33903 ft 372 kts 226°
2026-05-07 23:41 38.00562 -75.48444 33903 ft 376 kts 225°
2026-05-07 23:41 37.96222 -75.52189 33902 ft 375 kts 225°
2026-05-07 23:42 37.91934 -75.55885 33908 ft 375 kts 225°
2026-05-07 23:42 37.87608 -75.59632 33903 ft 375 kts 225°
2026-05-07 23:43 37.83005 -75.62961 33904 ft 391 kts 216°
2026-05-07 23:43 37.77739 -75.65131 33903 ft 402 kts 209°
2026-05-07 23:44 37.72324 -75.66943 33904 ft 407 kts 208°
2026-05-07 23:44 37.66841 -75.68779 33905 ft 405 kts 208°
2026-05-07 23:45 37.61378 -75.70652 33907 ft 406 kts 208°
2026-05-07 23:45 37.55940 -75.72542 33904 ft 404 kts 209°
2026-05-07 23:46 37.50527 -75.74429 33906 ft 403 kts 209°
2026-05-07 23:46 37.45117 -75.76321 33911 ft 405 kts 210°
2026-05-07 23:47 37.39642 -75.78236 33921 ft 407 kts 209°
2026-05-07 23:47 37.34233 -75.80106 33922 ft 402 kts 210°
2026-05-07 23:48 37.28780 -75.82012 33920 ft 407 kts 210°
2026-05-07 23:48 37.23348 -75.83896 33921 ft 405 kts 210°
2026-05-07 23:49 37.17923 -75.85772 33924 ft 402 kts 210°
2026-05-07 23:49 37.12471 -75.87672 33922 ft 404 kts 211°
2026-05-07 23:50 37.07344 -75.90083 33919 ft 386 kts 219°
2026-05-07 23:50 37.02625 -75.93154 33916 ft 381 kts 222°
2026-05-07 23:51 36.98007 -75.96388 33919 ft 379 kts 223°
2026-05-07 23:51 36.93411 -75.99621 33918 ft 380 kts 222°
2026-05-07 23:52 36.88786 -76.02845 33918 ft 380 kts 223°
2026-05-07 23:52 36.84183 -76.06030 33918 ft 377 kts 223°
2026-05-07 23:53 36.79575 -76.09229 33917 ft 381 kts 222°
2026-05-07 23:53 36.74945 -76.12417 33917 ft 377 kts 222°
2026-05-07 23:54 36.70303 -76.15616 33917 ft 380 kts 222°
2026-05-07 23:54 36.65648 -76.18825 33917 ft 379 kts 222°
2026-05-07 23:55 36.61060 -76.21968 33919 ft 379 kts 223°
2026-05-07 23:55 36.56434 -76.25153 33919 ft 381 kts 222°
2026-05-07 23:56 36.51790 -76.28327 33918 ft 377 kts 222°
2026-05-07 23:56 36.47191 -76.31473 33917 ft 379 kts 222°
2026-05-07 23:57 36.42567 -76.34637 33915 ft 379 kts 222°
2026-05-07 23:57 36.37925 -76.37801 33914 ft 381 kts 222°
2026-05-07 23:58 36.33316 -76.40938 33916 ft 377 kts 222°
2026-05-07 23:58 36.28685 -76.44097 33912 ft 380 kts 222°
2026-05-07 23:59 36.24029 -76.47264 33911 ft 382 kts 223°
2026-05-07 23:59 36.19352 -76.50436 33916 ft 381 kts 222°
2026-05-08 00:00 36.14717 -76.53574 33917 ft 380 kts 222°
2026-05-08 00:00 36.10070 -76.56712 33921 ft 379 kts 222°
2026-05-08 00:01 36.05433 -76.59856 33919 ft 381 kts 222°
2026-05-08 00:01 36.00764 -76.63007 33921 ft 381 kts 222°
2026-05-08 00:02 35.96086 -76.66157 33920 ft 383 kts 221°
2026-05-08 00:02 35.91402 -76.69308 33928 ft 381 kts 221°
2026-05-08 00:03 35.86676 -76.72343 33932 ft 385 kts 219°
2026-05-08 00:03 35.81881 -76.75246 33931 ft 385 kts 219°
2026-05-08 00:04 35.77030 -76.78175 33923 ft 387 kts 219°
2026-05-08 00:04 35.72149 -76.81132 33918 ft 388 kts 219°
2026-05-08 00:05 35.67311 -76.84058 33923 ft 385 kts 219°
2026-05-08 00:05 35.62495 -76.86984 33924 ft 389 kts 219°
2026-05-08 00:06 35.57637 -76.89932 33921 ft 389 kts 220°
2026-05-08 00:06 35.52801 -76.92895 33924 ft 390 kts 220°
2026-05-08 00:07 35.47921 -76.95894 33910 ft 391 kts 220°
2026-05-08 00:07 35.43062 -76.98869 33905 ft 390 kts 220°
2026-05-08 00:08 35.38176 -77.01859 33891 ft 393 kts 220°
2026-05-08 00:08 35.33254 -77.04858 33895 ft 391 kts 219°
2026-05-08 00:09 35.28344 -77.07858 33893 ft 394 kts 220°
2026-05-08 00:09 35.23437 -77.10846 33892 ft 392 kts 219°
2026-05-08 00:10 35.18540 -77.13831 33889 ft 395 kts 219°
2026-05-08 00:10 35.13607 -77.16822 33890 ft 394 kts 219°
2026-05-08 00:11 35.08671 -77.19819 33891 ft 396 kts 219°
2026-05-08 00:11 35.03717 -77.22814 33888 ft 394 kts 219°
2026-05-08 00:12 34.98813 -77.25778 33880 ft 396 kts 219°
2026-05-08 00:12 34.93852 -77.28775 33881 ft 398 kts 219°
2026-05-08 00:13 34.88872 -77.31779 33879 ft 395 kts 219°
2026-05-08 00:13 34.83944 -77.34751 33872 ft 399 kts 219°
2026-05-08 00:14 34.78979 -77.37736 33877 ft 396 kts 219°
2026-05-08 00:14 34.74036 -77.40702 33870 ft 397 kts 218°
2026-05-08 00:15 34.69075 -77.43681 33873 ft 398 kts 218°
2026-05-08 00:15 34.64109 -77.46658 33869 ft 399 kts 218°
2026-05-08 00:16 34.59146 -77.49626 33869 ft 398 kts 218°
2026-05-08 00:16 34.54184 -77.52554 33868 ft 400 kts 217°
2026-05-08 00:17 34.51546 -77.53862 33866 ft 411 kts 212°
2026-05-08 00:17 34.48762 -77.54833 33861 ft 421 kts 207°
2026-05-08 00:17 34.42986 -77.56198 33864 ft 424 kts 203°
2026-05-08 00:18 34.37163 -77.57374 33856 ft 426 kts 203°
2026-05-08 00:18 34.31295 -77.58598 33853 ft 427 kts 203°
2026-05-08 00:19 34.25470 -77.59842 33853 ft 423 kts 203°
2026-05-08 00:19 34.19638 -77.61114 33852 ft 426 kts 203°
2026-05-08 00:20 34.13805 -77.62391 33848 ft 423 kts 203°
2026-05-08 00:20 34.07988 -77.63669 33849 ft 426 kts 203°
2026-05-08 00:21 34.02163 -77.64941 33855 ft 425 kts 203°
2026-05-08 00:21 33.96281 -77.66229 33853 ft 427 kts 202°
2026-05-08 00:22 33.90446 -77.67507 33857 ft 427 kts 202°
2026-05-08 00:22 33.84581 -77.68789 33860 ft 429 kts 202°
2026-05-08 00:23 33.78713 -77.70068 33854 ft 426 kts 202°
2026-05-08 00:23 33.72834 -77.71351 33857 ft 431 kts 202°
2026-05-08 00:24 33.66990 -77.72675 33853 ft 425 kts 204°
2026-05-08 00:24 33.61266 -77.74448 33860 ft 423 kts 207°
2026-05-08 00:25 33.55609 -77.76378 33861 ft 421 kts 207°
2026-05-08 00:25 33.49976 -77.78281 33858 ft 421 kts 207°
2026-05-08 00:26 33.44327 -77.80164 33858 ft 423 kts 207°
2026-05-08 00:26 33.38617 -77.82037 33857 ft 424 kts 206°
2026-05-08 00:27 33.32910 -77.83896 33856 ft 424 kts 206°
2026-05-08 00:27 33.27234 -77.85736 33859 ft 424 kts 207°
2026-05-08 00:28 33.21515 -77.87594 33858 ft 424 kts 206°
2026-05-08 00:28 33.15830 -77.89432 33860 ft 425 kts 206°
2026-05-08 00:29 33.10126 -77.91280 33860 ft 424 kts 206°
2026-05-08 00:29 33.04414 -77.93122 33863 ft 426 kts 206°
2026-05-08 00:30 32.98690 -77.95032 33862 ft 425 kts 207°
2026-05-08 00:30 32.92997 -77.96999 33868 ft 427 kts 207°
2026-05-08 00:31 32.87274 -77.98973 33870 ft 426 kts 207°
2026-05-08 00:31 32.81556 -78.00938 33869 ft 429 kts 207°
2026-05-08 00:32 32.75792 -78.02903 33871 ft 427 kts 207°
2026-05-08 00:32 32.70061 -78.04855 33878 ft 428 kts 207°
2026-05-08 00:33 32.64346 -78.06802 33881 ft 431 kts 207°
2026-05-08 00:33 32.58588 -78.08754 33889 ft 428 kts 207°
2026-05-08 00:34 32.52784 -78.10724 33891 ft 431 kts 206°
2026-05-08 00:34 32.47046 -78.12663 33892 ft 430 kts 207°
2026-05-08 00:35 32.41242 -78.14625 33897 ft 432 kts 206°
2026-05-08 00:35 32.35434 -78.16580 33903 ft 430 kts 206°
2026-05-08 00:36 32.29608 -78.18541 33909 ft 430 kts 206°
2026-05-08 00:36 32.23832 -78.20489 33912 ft 431 kts 206°
2026-05-08 00:37 32.18009 -78.22448 33914 ft 432 kts 206°
2026-05-08 00:38 32.09319 -78.25365 33919 ft 435 kts 206°
2026-05-08 00:38 32.03496 -78.27318 33919 ft 434 kts 206°
2026-05-08 00:39 31.97667 -78.29265 33922 ft 434 kts 206°
2026-05-08 00:39 31.91826 -78.31223 33920 ft 438 kts 206°
2026-05-08 00:40 31.85980 -78.33174 33922 ft 434 kts 206°
2026-05-08 00:40 31.80146 -78.35117 33923 ft 436 kts 206°
2026-05-08 00:41 31.74308 -78.37064 33930 ft 439 kts 206°
2026-05-08 00:41 31.68403 -78.39028 33930 ft 438 kts 206°
2026-05-08 00:42 31.62522 -78.40980 33928 ft 437 kts 205°
2026-05-08 00:42 31.56641 -78.42931 33930 ft 440 kts 205°
2026-05-08 00:43 31.50714 -78.44894 33929 ft 439 kts 205°
2026-05-08 00:43 31.44825 -78.46809 33931 ft 441 kts 205°
2026-05-08 00:44 31.38877 -78.48737 33931 ft 441 kts 205°
2026-05-08 00:44 31.32940 -78.50656 33933 ft 443 kts 205°
2026-05-08 00:45 31.27025 -78.52568 33931 ft 443 kts 205°
2026-05-08 00:45 31.21019 -78.54511 33934 ft 445 kts 205°
2026-05-08 00:46 31.15062 -78.56434 33933 ft 446 kts 205°
2026-05-08 00:46 31.09066 -78.58368 33936 ft 446 kts 205°
2026-05-08 00:47 31.03077 -78.60292 33935 ft 445 kts 205°
2026-05-08 00:47 30.97049 -78.62227 33935 ft 446 kts 204°
2026-05-08 00:48 30.91092 -78.64135 33938 ft 447 kts 204°
2026-05-08 00:48 30.85040 -78.66080 33940 ft 449 kts 204°
2026-05-08 00:49 30.79035 -78.68003 33946 ft 448 kts 204°
2026-05-08 00:49 30.73004 -78.69933 33950 ft 446 kts 204°
2026-05-08 00:50 30.66972 -78.71862 33953 ft 448 kts 204°
2026-05-08 00:50 30.60968 -78.73780 33955 ft 447 kts 204°
2026-05-08 00:51 30.54925 -78.75704 33956 ft 450 kts 204°
2026-05-08 00:51 30.48878 -78.77625 33958 ft 448 kts 204°
2026-05-08 00:52 30.42881 -78.79532 33956 ft 450 kts 204°
2026-05-08 00:52 30.36818 -78.81457 33960 ft 447 kts 204°
2026-05-08 00:53 30.30836 -78.83350 33959 ft 450 kts 204°
2026-05-08 00:53 30.24764 -78.85272 33964 ft 449 kts 204°
2026-05-08 00:54 30.18754 -78.87167 33958 ft 449 kts 204°
2026-05-08 00:54 30.12688 -78.89086 33960 ft 452 kts 204°
2026-05-08 00:55 30.06657 -78.90986 33963 ft 447 kts 204°
2026-05-08 00:55 30.00549 -78.92915 33966 ft 450 kts 204°
2026-05-08 00:56 29.94526 -78.94807 33970 ft 451 kts 203°
2026-05-08 00:56 29.88425 -78.96723 33968 ft 450 kts 204°
2026-05-08 00:57 29.82399 -78.98614 33971 ft 450 kts 203°
2026-05-08 00:57 29.76213 -79.00210 33971 ft 456 kts 198°
2026-05-08 00:58 29.69910 -79.01349 33971 ft 459 kts 196°
2026-05-08 00:58 29.63608 -79.02416 33975 ft 459 kts 196°
2026-05-08 00:59 29.57269 -79.03524 33975 ft 459 kts 197°
2026-05-08 00:59 29.50949 -79.04655 33974 ft 457 kts 197°
2026-05-08 01:00 29.44574 -79.05819 33977 ft 459 kts 197°
2026-05-08 01:00 29.38256 -79.06974 33980 ft 457 kts 197°
2026-05-08 01:01 29.31970 -79.08125 33978 ft 457 kts 197°
2026-05-08 01:01 29.25641 -79.09290 33980 ft 459 kts 197°
2026-05-08 01:02 29.19314 -79.10452 33978 ft 459 kts 197°
2026-05-08 01:02 29.13026 -79.11603 33983 ft 458 kts 196°
2026-05-08 01:03 29.06713 -79.12759 33983 ft 459 kts 196°
2026-05-08 01:03 29.00386 -79.13911 33984 ft 459 kts 196°
2026-05-08 01:04 28.94091 -79.15060 33983 ft 459 kts 196°
2026-05-08 01:04 28.87732 -79.16216 33983 ft 459 kts 196°
2026-05-08 01:05 28.81433 -79.17361 33987 ft 461 kts 196°
2026-05-08 01:05 28.75102 -79.18509 33987 ft 459 kts 196°
2026-05-08 01:06 28.68779 -79.19655 33989 ft 460 kts 196°
2026-05-08 01:06 28.62415 -79.20808 33991 ft 461 kts 196°
2026-05-08 01:07 28.56017 -79.21964 33993 ft 462 kts 195°
2026-05-08 01:07 28.49685 -79.23106 33992 ft 459 kts 195°
2026-05-08 01:08 28.43330 -79.24255 33993 ft 461 kts 195°
2026-05-08 01:08 28.37001 -79.25396 33994 ft 461 kts 195°
2026-05-08 01:09 28.30667 -79.26663 33994 ft 458 kts 199°
2026-05-08 01:09 28.24499 -79.28536 33995 ft 456 kts 202°
2026-05-08 01:10 28.18418 -79.30600 33997 ft 455 kts 203°
2026-05-08 01:10 28.12324 -79.32663 33998 ft 455 kts 202°
2026-05-08 01:11 28.06218 -79.34686 33998 ft 457 kts 202°
2026-05-08 01:11 28.00088 -79.36688 34001 ft 456 kts 202°
2026-05-08 01:12 27.93972 -79.38674 34000 ft 457 kts 202°
2026-05-08 01:12 27.87799 -79.40669 34001 ft 458 kts 202°
2026-05-08 01:13 27.81649 -79.42651 34001 ft 459 kts 202°
2026-05-08 01:13 27.75531 -79.44617 34001 ft 458 kts 202°
2026-05-08 01:14 27.69366 -79.46601 34000 ft 459 kts 201°
2026-05-08 01:14 27.64252 -79.48245 34000 ft 458 kts 201°
2026-05-08 01:15 27.57087 -79.50543 34002 ft 458 kts 201°